Temperature
21 21 20 20 20 21 23 25 26 26 25 25 25 24 23 23 22 21 21 21 21 21 21 21 21 20 20 20 20 20 20 20 20 20 20 20 20 20 20 19 19 19 19 19 19 19 19 19 19
22 21 20 20 21 22 24 25 26 26 26 25 25 24 23 22 22 21 21 21 21 21 21 21 21 21 20 20 20 20 20 20 20 20 20 20 19 19 19 19 19 19 19 19 19 19 19 19 19
22 21 20 20 22 23 24 26 26 27 26 26 25 24 23 23 22 22 21 21 21 21 21 21 21 21 20 20 20 20 20 20 20 20 20 20 20 19 19 19 19 19 19 19 19 19 19 19 19
22 21 21 21 23 25 26 26 26 27 26 25 24 23 23 23 22 22 22 21 21 21 21 21 21 21 20 20 20 20 20 20 20 20 20 20 20 19 19 19 19 19 19 19 19 19 19 19 19
22 22 21 22 24 26 27 27 27 26 26 25 24 23 23 23 23 22 22 22 22 21 21 21 21 21 20 20 20 20 20 20 20 20 19 20 19 19 19 19 19 19 19 19 19 19 19 19 19
22 21 22 23 25 27 27 27 26 26 25 25 24 23 22 23 22 22 22 22 21 21 21 21 21 20 20 20 20 20 20 20 20 20 19 19 19 19 19 19 19 19 19 19 19 19 19 19 19
22 21 23 24 25 26 27 27 27 26 25 25 24 22 22 22 22 22 22 22 21 21 21 21 21 20 20 20 20 20 20 20 20 20 19 19 19 19 19 19 19 19 19 19 19 19 19 19 18
24 22 24 24 25 26 27 27 27 26 26 25 25 23 22 22 22 22 22 22 21 21 21 21 21 21 20 20 20 20 20 20 20 20 19 19 19 19 19 19 19 19 19 19 19 19 19 18 18
24 22 23 25 25 26 27 27 27 26 26 25 25 24 23 23 22 22 22 21 21 21 21 21 21 20 20 20 20 20 20 20 20 19 19 19 19 19 19 19 19 19 19 19 18 18 18 18 18
24 23 25 26 26 26 27 27 27 26 25 24 24 24 23 23 23 22 22 21 21 21 21 21 21 20 20 20 20 20 20 20 19 19 19 19 19 19 19 19 19 19 19 19 18 18 18 18 18
25 25 26 27 28 28 27 27 27 25 24 24 24 23 23 23 23 22 22 22 21 21 21 21 20 20 20 20 20 20 20 20 19 19 19 19 19 19 19 19 19 19 19 19 18 18 18 18 18
26 27 28 28 28 28 27 27 26 26 25 25 24 24 23 23 23 22 22 22 21 21 21 21 21 20 20 20 20 20 20 20 19 19 19 19 19 19 19 19 19 19 19 19 19 18 18 18 18
27 27 28 28 28 28 27 26 26 26 25 25 24 24 23 23 23 22 22 22 22 21 21 21 20 20 20 20 20 20 20 20 19 19 19 19 19 19 19 19 19 19 19 19 19 18 18 18 18
27 28 28 28 28 28 27 26 26 25 25 25 24 24 23 23 23 22 22 22 22 21 21 21 20 20 20 20 20 20 20 19 19 19 19 19 19 19 19 19 19 19 19 19 18 18 18 18 18
28 27 27 27 27 27 27 25 25 25 25 25 24 24 23 23 23 23 22 22 22 21 21 21 21 21 20 20 20 20 20 20 19 19 19 19 19 19 19 19 19 19 18 18 18 18 18 18 18
27 26 26 27 27 27 26 24 25 26 25 24 24 24 23 23 23 23 22 22 22 22 21 21 21 21 20 20 20 20 20 19 19 19 19 19 19 19 19 19 18 18 18 18 18 18 18 18 18
25 25 25 26 27 27 25 24 25 26 25 24 24 23 23 23 23 22 22 22 22 22 21 21 21 21 20 20 20 20 20 19 19 19 19 19 19 19 19 18 18 18 18 18 18 18 18 18 18
25 25 25 26 27 27 25 24 25 25 25 24 24 23 23 23 23 22 22 22 22 22 21 21 21 21 20 20 20 20 19 19 19 19 19 19 19 19 19 19 19 18 18 18 18 18 18 18 18
26 26 26 26 28 26 25 24 24 24 24 24 23 23 23 22 22 22 22 22 22 22 21 21 21 21 20 20 20 20 19 19 19 19 19 19 19 19 19 19 19 18 18 18 18 18 18 18 18
27 26 26 26 27 26 25 24 24 24 24 24 24 23 23 22 22 22 22 22 22 22 21 21 21 21 20 20 20 19 19 19 19 19 19 19 19 19 19 19 18 18 18 18 18 18 18 18 18
27 26 26 26 26 26 25 24 24 24 24 24 24 24 23 23 22 22 22 22 22 22 22 21 21 21 21 20 20 19 19 19 19 19 19 19 19 19 19 19 18 18 18 18 18 18 18 18 18
26 28 28 27 25 23 24 22 23 23 23 23 23 23 23 23 23 22 22 22 22 22 22 21 21 21 20 20 20 20 19 19 19 19 18 18 18 18 18 18 18 18 18 18 18 18 18 18 18
27 28 27 27 25 23 23 22 22 22 23 23 23 23 23 23 23 23 22 22 22 22 22 21 21 21 20 20 20 19 19 19 19 18 18 18 18 18 18 18 18 18 18 18 18 18 18 18 18
28 27 25 23 22 22 23 22 22 22 23 23 23 23 23 23 23 23 22 22 22 22 21 21 21 21 20 20 20 19 19 19 19 18 18 18 18 18 18 18 18 18 18 18 18 18 18 18 18
27 24 23 23 21 22 22 22 22 23 24 24 23 23 23 23 23 22 22 22 22 22 21 21 21 20 20 20 20 19 19 19 19 18 18 18 18 18 18 18 18 18 18 18 18 18 18 18 18
26 24 23 23 22 22 22 22 23 24 24 25 24 24 23 23 23 22 22 22 22 22 21 21 21 20 20 20 19 19 19 19 18 18 18 18 18 18 18 18 18 18 18 17 17 18 18 18 18
26 24 23 22 22 22 22 22 23 24 23 23 23 24 23 23 23 22 22 22 22 22 21 21 20 20 20 19 19 19 19 18 18 18 18 18 18 18 18 17 17 17 17 17 17 17 17 17 17
27 25 22 22 22 22 23 23 22 23 23 23 23 23 23 23 23 22 22 22 22 22 21 21 20 20 19 19 19 18 18 18 18 18 18 18 17 17 17 17 17 17 17 17 17 17 17 17 17
26 25 23 20 21 21 22 22 24 23 23 22 22 23 23 23 23 22 22 22 22 21 21 21 20 20 19 19 19 18 18 18 18 17 17 17 17 17 17 17 17 17 17 17 16 16 16 16 16
26 25 22 22 22 21 21 22 25 23 23 23 23 23 23 23 23 22 22 21 21 21 20 20 20 20 19 19 18 18 18 17 17 17 17 17 17 17 17 17 17 17 16 16 16 16 16 16 16
Wind_Speed
9 7 3 1 1 3 3 3 4 6 6 8 11 10 9 7 4 4 3 6 7 6 5 7 7 7 7 8 8 8 8 9 9 8 7 8 8 8 8 8 9 10 10 10 11 11 12 13 13
7 5 1 1 3 3 2 4 8 9 9 11 11 11 9 6 5 6 4 6 8 6 5 7 8 8 8 9 9 10 9 9 9 8 8 8 8 9 8 8 8 9 10 10 10 10 11 12 13
5 3 1 1 1 2 2 5 8 10 10 9 7 7 5 4 4 4 6 8 7 5 5 7 9 8 9 10 10 10 9 9 9 9 9 9 9 8 8 8 9 9 9 9 10 10 10 11 13
2 1 1 2 2 1 4 5 8 10 9 9 8 6 4 4 4 7 10 9 7 5 5 7 8 9 9 9 9 9 9 9 9 10 9 9 8 8 8 8 9 9 9 8 9 10 10 10 12
1 1 3 2 2 3 5 6 9 9 6 9 10 7 4 3 9 12 10 9 8 5 5 7 8 8 8 9 9 9 9 10 10 10 9 8 7 7 7 8 8 8 7 7 8 9 11 12 12
1 2 2 2 4 5 5 8 12 13 11 10 10 7 2 3 9 9 10 8 6 6 4 6 8 8 8 8 8 9 10 10 10 9 8 7 7 7 7 8 8 8 7 6 8 10 11 11 11
2 1 1 1 4 5 6 7 9 10 10 7 8 6 3 2 5 8 8 7 6 5 5 4 5 6 7 8 8 9 9 9 9 9 8 7 7 7 8 8 8 8 7 7 8 10 10 11 11
3 1 1 2 3 3 5 7 7 10 8 8 6 7 4 4 6 9 8 6 5 4 4 3 3 4 4 5 8 8 9 8 8 8 8 7 8 8 9 8 7 6 6 8 8 9 10 9 9
1 2 1 2 3 4 6 9 6 7 8 5 5 7 8 8 10 10 8 6 5 5 3 4 4 3 4 4 6 6 7 7 7 6 7 6 5 5 6 7 7 6 6 7 8 9 8 8 8
3 2 3 3 3 5 7 7 6 6 9 8 9 9 10 10 10 10 8 6 5 4 3 3 4 4 3 4 4 4 4 4 4 3 4 3 3 4 5 6 6 7 7 8 8 8 6 5 4
5 5 3 2 3 5 6 4 5 8 6 8 12 12 10 10 9 8 7 6 5 4 4 4 4 4 4 3 4 2 2 3 3 3 3 3 3 3 3 3 3 4 6 5 5 4 4 3 3
2 3 3 3 4 5 6 5 6 7 7 10 12 12 10 10 8 8 7 6 5 6 5 4 4 5 4 4 3 3 2 3 3 3 4 4 3 3 3 3 3 3 3 4 3 3 3 4 5
0 0 2 2 4 5 7 7 7 8 10 12 12 11 10 9 8 7 7 7 6 6 6 5 5 5 4 5 3 4 3 3 3 3 4 5 4 3 3 3 3 3 4 4 4 4 4 4 5
2 0 2 2 3 5 9 6 6 7 10 12 11 9 9 10 9 7 7 7 6 5 5 5 6 5 5 5 4 3 3 3 4 4 4 6 5 4 4 3 3 3 3 4 4 4 4 3 4
2 2 3 1 2 4 9 6 5 7 10 10 9 9 10 10 9 9 8 8 7 6 5 5 6 6 6 5 4 4 3 4 4 3 4 5 5 4 4 3 3 3 4 5 4 4 4 4 4
4 4 2 2 1 2 7 5 4 7 10 9 8 9 10 8 8 8 9 8 7 7 6 5 6 6 6 5 4 3 4 4 3 3 4 4 4 4 4 3 3 3 4 4 3 3 3 3 2
4 2 3 4 2 1 5 4 5 6 9 8 7 8 9 8 7 7 9 9 8 7 6 5 5 5 5 4 4 4 4 4 3 3 3 3 5 5 4 3 3 3 3 3 3 3 3 3 2
4 2 3 4 3 3 3 4 6 6 8 8 7 8 8 9 8 8 8 9 8 7 6 6 5 5 5 4 4 3 4 4 3 3 3 3 4 5 4 4 3 3 3 3 3 3 2 2 2
5 3 3 5 3 2 4 5 5 6 7 8 7 8 9 9 8 7 8 9 8 7 6 5 5 4 4 3 3 3 2 2 2 2 3 4 4 4 4 4 3 3 2 2 2 2 2 1 1
4 2 3 4 1 2 3 2 3 5 8 9 9 9 9 9 8 7 7 8 8 7 6 6 5 4 4 3 3 2 2 1 2 2 2 3 3 3 3 3 3 2 2 2 1 2 2 0 1
3 4 4 3 2 4 4 2 3 4 4 6 8 9 10 12 12 10 9 8 8 8 7 7 5 5 4 4 4 3 3 3 3 2 2 2 3 3 3 3 2 2 2 1 1 2 3 1 1
5 5 4 3 2 1 2 1 5 4 4 5 5 7 9 10 11 10 9 8 8 8 7 7 6 5 4 5 5 5 4 2 1 1 1 2 2 2 3 3 2 2 2 1 1 1 2 2 1
6 4 2 2 2 1 1 2 5 2 4 6 7 8 8 10 12 12 11 9 8 7 7 6 6 5 4 5 6 5 4 2 1 2 2 2 2 2 2 2 2 2 1 1 1 1 1 1 1
3 2 5 5 5 1 3 3 5 5 7 7 8 9 9 10 11 10 9 8 7 7 6 6 6 4 4 5 5 5 5 4 3 2 2 1 1 1 2 2 1 1 1 1 1 1 1 1 1
2 5 4 5 4 3 3 2 7 7 6 8 9 9 9 10 11 10 10 9 8 8 7 7 7 5 4 5 4 4 5 4 4 3 2 1 1 1 1 1 1 1 0 1 1 1 1 1 1
3 8 7 4 4 3 2 3 6 4 3 6 7 8 9 10 10 10 11 10 9 9 8 7 7 5 4 4 4 3 4 3 3 3 2 2 1 1 0 1 1 1 1 1 1 1 0 1 1
4 4 8 7 2 1 2 3 5 2 1 3 7 8 10 11 11 11 10 10 10 10 8 8 7 5 4 4 4 3 3 3 3 2 2 2 1 1 1 1 1 1 1 1 1 1 1 1 1
7 7 6 5 3 1 2 3 5 6 6 5 7 8 9 10 10 10 9 9 9 9 8 7 6 5 4 4 3 3 2 2 3 3 2 2 1 2 2 1 1 1 1 1 2 1 1 1 1
1 2 5 5 5 6 4 6 7 12 10 9 9 9 10 11 11 10 9 8 8 7 7 7 6 5 4 4 4 3 3 3 3 2 2 2 2 2 2 2 2 2 2 2 1 1 1 1 1
5 5 6 4 4 5 5 7 5 9 8 10 11 9 9 9 10 10 10 9 8 8 7 7 6 6 5 5 5 4 3 3 3 2 1 2 2 2 2 2 2 1 1 1 1 1 1 1 0
Wind_Direction
166 164 169 190 8 30 34 54 91 80 64 67 75 80 76 70 92 131 178 140 138 146 151 142 125 114 113 117 122 127 125 124 123 117 118 126 128 129 133 140 147 150 151 153 155 157 157 158 160
162 165 181 33 45 50 25 71 77 90 116 105 81 79 73 69 89 116 127 146 139 138 145 140 128 118 116 118 120 123 123 123 121 118 113 118 120 121 124 133 142 144 146 150 155 159 158 160 163
177 189 184 48 37 122 108 99 99 98 101 94 85 65 70 98 103 129 151 147 131 131 143 141 132 127 120 116 116 119 124 123 120 118 113 112 113 119 122 129 138 140 142 146 155 156 157 161 166
166 161 19 43 66 127 132 131 107 100 80 78 90 70 57 86 117 136 142 137 130 136 144 143 133 132 127 121 118 118 121 119 115 115 114 111 111 118 124 127 132 137 139 145 155 156 155 156 158
136 71 12 19 70 80 105 115 104 95 87 88 91 93 70 67 113 131 138 135 138 144 147 145 134 133 132 126 121 121 120 120 116 113 111 106 109 115 121 121 123 130 138 147 154 153 153 151 152
56 67 40 54 71 72 85 104 99 98 103 103 99 100 79 123 122 134 135 135 139 143 145 143 138 129 128 130 126 122 121 119 116 113 111 103 103 116 123 119 121 124 127 130 143 148 147 147 146
130 88 241 107 84 77 91 99 102 113 113 114 121 100 94 123 137 130 128 128 128 129 129 130 143 138 131 130 127 124 121 119 114 112 106 99 98 115 125 124 125 125 127 127 133 148 144 140 141
165 102 332 73 105 103 97 90 103 111 110 123 117 115 144 178 122 114 112 115 114 117 126 122 124 135 136 132 124 125 123 119 116 112 109 98 98 111 118 121 126 130 133 135 131 136 138 136 137
154 65 29 153 146 138 115 102 96 90 102 96 92 118 146 138 115 108 97 92 97 97 100 113 113 128 141 135 126 124 121 121 119 115 109 100 95 104 113 117 123 125 130 137 132 130 130 129 130
147 150 205 202 156 141 119 114 119 95 92 92 97 107 122 116 112 114 115 114 110 111 110 108 115 120 130 136 129 128 121 121 118 118 106 92 91 109 109 111 113 111 116 128 128 132 130 120 117
167 175 202 184 148 133 123 113 100 116 118 137 134 134 127 116 112 115 117 119 117 119 107 105 118 118 112 107 119 120 117 110 109 108 108 102 93 91 88 100 103 103 106 116 117 115 117 116 115
156 199 174 153 122 113 128 117 103 118 145 143 135 134 128 124 123 124 123 120 107 96 93 90 98 104 104 107 109 117 105 96 93 101 106 104 89 82 82 85 88 88 102 102 94 95 95 99 106
55 122 94 147 108 119 116 109 110 108 122 131 131 131 133 134 130 123 120 114 102 93 87 90 87 94 101 98 99 102 92 96 106 105 102 107 98 94 82 80 86 89 104 109 104 97 93 88 93
270 304 86 108 99 118 112 107 102 129 130 135 138 140 140 137 133 122 117 113 111 105 97 90 86 88 95 99 99 100 99 104 101 98 95 99 101 97 93 88 88 95 112 116 114 112 106 100 96
349 19 12 105 108 126 106 84 118 145 133 135 144 145 139 137 135 135 134 130 130 125 111 103 100 85 87 91 94 89 86 98 97 97 90 95 102 103 103 92 88 97 106 101 100 95 90 93 90
8 30 359 287 154 153 108 145 177 154 140 142 150 148 140 142 142 140 136 129 129 124 116 107 102 91 90 90 88 83 81 87 91 96 92 92 99 102 97 95 88 95 97 96 99 99 94 92 101
11 2 307 293 254 151 111 160 197 168 146 154 157 151 144 141 139 140 141 137 135 131 126 113 100 101 100 97 89 81 78 76 86 91 86 90 97 102 99 95 94 95 88 89 106 96 105 113 122
260 276 269 264 260 112 124 165 177 168 155 159 160 156 153 152 158 154 146 139 133 128 122 114 102 98 99 96 84 69 61 60 69 77 82 90 95 99 100 94 88 95 92 83 92 101 93 122 149
215 229 257 271 231 119 153 168 181 175 162 165 166 167 167 164 162 152 145 139 132 126 121 117 110 106 104 102 102 97 80 64 59 64 73 84 90 98 100 102 96 92 99 110 119 114 101 111 118
213 203 260 282 226 126 134 161 188 191 184 182 179 175 169 162 156 157 152 148 146 143 140 136 133 128 123 127 131 130 125 106 99 65 64 86 95 104 109 106 112 108 101 80 84 119 121 149 141
249 205 221 236 22 67 91 360 227 222 203 187 179 173 171 170 168 169 162 158 151 152 156 151 150 142 135 128 113 100 78 59 51 50 47 45 82 95 107 113 114 119 126 136 151 152 146 172 263
255 239 208 190 114 256 131 219 262 220 212 190 182 176 177 171 167 166 164 162 162 166 162 153 151 142 140 134 127 126 123 128 156 147 91 58 60 77 99 109 112 111 107 119 134 133 144 147 205
230 236 207 170 118 57 7 134 273 224 196 203 192 181 175 171 167 167 167 169 166 161 156 149 142 138 137 135 139 134 129 140 131 98 84 61 40 55 79 109 104 100 92 108 85 86 113 136 163
209 38 26 52 70 9 255 167 260 233 203 188 182 178 176 169 162 160 158 153 151 150 145 143 136 136 139 139 138 139 141 141 126 114 103 72 31 30 37 78 87 96 96 128 141 139 119 112 115
89 83 32 360 14 260 255 188 244 237 199 177 175 175 171 164 160 157 154 152 154 152 151 146 140 140 140 133 139 147 151 151 151 155 153 141 82 31 3 47 63 56 122 104 84 84 64 60 84
196 138 154 202 225 266 313 230 262 245 185 162 158 161 159 159 162 161 162 160 157 154 151 152 151 153 154 146 145 137 136 143 149 158 160 159 166 180 238 77 84 68 60 63 73 61 17 55 89
171 178 170 148 153 112 288 302 324 39 82 142 147 150 160 165 162 161 162 159 158 158 161 162 159 157 159 156 148 136 135 136 137 131 137 145 153 132 78 62 86 62 40 47 76 81 28 35 38
164 161 98 112 153 213 264 233 216 209 200 183 163 155 159 165 161 163 162 163 164 165 164 157 155 157 158 152 154 146 138 127 119 110 113 121 116 105 97 66 60 44 32 45 64 63 22 33 352
182 118 116 128 156 159 212 254 214 196 191 180 176 165 162 166 162 156 156 161 156 150 151 150 151 144 142 145 136 122 117 111 96 99 119 121 100 101 106 103 71 39 24 24 39 350 18 45 348
157 172 145 152 233 179 177 255 233 182 182 169 160 153 154 155 153 150 151 154 150 149 152 151 150 146 144 138 132 132 131 120 108 105 131 129 121 111 115 100 85 64 33 24 33 359 24 51 2
Height
1504 1504 1504 1505 1505 1509 1507 1496 1488 1486 1488 1489 1487 1488 1491 1494 1499 1505 1500 1498 1497 1496 1494 1492 1490 1486 1482 1480 1480 1482 1484 1485 1485 1484 1483 1483 1484 1485 1486 1486 1487 1488 1489 1490 1491 1493 1494 1496 1499
1504 1504 1505 1505 1509 1519 1510 1494 1490 1488 1489 1489 1490 1491 1493 1496 1497 1498 1498 1499 1498 1496 1494 1493 1490 1487 1484 1482 1482 1483 1485 1486 1486 1485 1484 1483 1483 1484 1485 1486 1487 1488 1489 1490 1491 1492 1494 1495 1498
1505 1505 1506 1507 1511 1514 1506 1493 1489 1489 1489 1488 1492 1494 1495 1498 1498 1499 1499 1499 1498 1496 1495 1494 1491 1489 1487 1486 1486 1486 1487 1487 1487 1487 1486 1485 1485 1485 1485 1486 1486 1488 1489 1490 1491 1492 1493 1494 1497
1505 1507 1507 1510 1509 1500 1495 1491 1489 1490 1491 1491 1492 1496 1498 1500 1499 1500 1500 1499 1498 1497 1496 1495 1493 1491 1490 1490 1489 1489 1489 1489 1488 1488 1488 1487 1487 1487 1487 1487 1488 1489 1489 1490 1490 1491 1492 1493 1496
1505 1506 1510 1512 1505 1495 1490 1489 1489 1490 1492 1495 1494 1498 1501 1502 1500 1500 1500 1500 1499 1498 1497 1496 1495 1493 1493 1492 1492 1492 1491 1491 1490 1490 1490 1489 1488 1488 1488 1488 1489 1489 1490 1490 1490 1490 1492 1494 1498
1507 1507 1516 1516 1504 1495 1491 1490 1490 1493 1495 1497 1497 1500 1503 1503 1501 1501 1501 1500 1500 1498 1497 1497 1496 1495 1495 1495 1494 1494 1494 1494 1493 1492 1492 1490 1487 1486 1488 1489 1490 1490 1490 1491 1490 1491 1493 1496 1499
1508 1510 1514 1510 1505 1500 1494 1492 1492 1494 1496 1498 1498 1501 1504 1504 1503 1503 1502 1501 1500 1499 1498 1498 1497 1497 1497 1497 1497 1497 1496 1496 1495 1495 1493 1490 1486 1484 1487 1490 1491 1492 1492 1491 1492 1493 1496 1498 1501
1505 1508 1510 1508 1506 1502 1495 1493 1494 1494 1497 1499 1499 1501 1504 1505 1505 1504 1503 1503 1502 1500 1500 1499 1499 1499 1499 1499 1499 1499 1499 1498 1498 1497 1495 1493 1490 1488 1490 1492 1493 1493 1492 1492 1494 1496 1498 1500 1503
1504 1511 1514 1507 1503 1500 1494 1494 1496 1496 1497 1499 1500 1501 1503 1505 1505 1505 1504 1504 1503 1502 1501 1501 1500 1500 1501 1501 1501 1501 1501 1501 1500 1499 1498 1497 1495 1494 1495 1495 1495 1493 1491 1492 1495 1498 1501 1503 1504
1503 1511 1506 1497 1495 1495 1494 1494 1496 1498 1499 1501 1502 1504 1505 1506 1506 1505 1505 1504 1504 1503 1503 1502 1502 1502 1502 1503 1503 1503 1503 1503 1503 1502 1501 1500 1500 1499 1498 1498 1497 1495 1493 1494 1498 1501 1503 1504 1505
1499 1501 1496 1493 1492 1493 1495 1495 1496 1498 1502 1502 1502 1504 1506 1507 1507 1507 1506 1506 1506 1506 1505 1505 1504 1504 1504 1505 1505 1505 1505 1505 1505 1505 1504 1503 1502 1502 1501 1501 1501 1499 1498 1499 1502 1504 1506 1506 1507
1496 1493 1492 1491 1492 1492 1494 1495 1497 1498 1501 1502 1503 1505 1506 1507 1507 1507 1507 1507 1507 1507 1507 1507 1507 1507 1507 1507 1507 1507 1507 1507 1507 1507 1506 1505 1505 1504 1504 1504 1504 1504 1504 1504 1505 1507 1508 1509 1509
1495 1493 1491 1491 1491 1492 1494 1496 1497 1501 1502 1504 1505 1506 1507 1508 1508 1509 1509 1509 1509 1509 1509 1509 1509 1509 1509 1509 1509 1509 1509 1509 1509 1509 1508 1508 1507 1507 1507 1506 1506 1507 1507 1507 1508 1509 1510 1511 1512
1494 1493 1491 1491 1492 1493 1494 1498 1499 1503 1503 1505 1506 1507 1508 1508 1509 1509 1510 1510 1510 1510 1511 1511 1511 1511 1510 1510 1510 1510 1511 1510 1511 1511 1510 1510 1509 1509 1509 1509 1509 1509 1509 1510 1510 1511 1512 1513 1514
1493 1494 1493 1492 1492 1494 1496 1503 1503 1503 1504 1506 1507 1508 1508 1509 1509 1510 1510 1510 1511 1512 1512 1512 1512 1512 1512 1512 1512 1512 1512 1512 1512 1512 1512 1512 1512 1511 1511 1511 1511 1511 1511 1512 1513 1513 1514 1515 1516
1495 1500 1505 1496 1493 1494 1500 1513 1504 1503 1504 1505 1507 1508 1508 1509 1510 1510 1511 1511 1512 1512 1512 1513 1513 1513 1514 1514 1514 1514 1514 1514 1514 1514 1514 1513 1513 1513 1513 1513 1513 1514 1513 1514 1514 1515 1515 1516 1517
1505 1512 1510 1501 1493 1494 1500 1508 1502 1501 1502 1505 1507 1508 1508 1509 1510 1511 1511 1511 1512 1512 1513 1513 1514 1514 1514 1515 1515 1515 1515 1515 1515 1515 1515 1515 1515 1515 1515 1515 1515 1515 1516 1516 1516 1517 1517 1518 1519
1514 1512 1510 1505 1495 1494 1501 1503 1500 1500 1501 1503 1506 1507 1508 1509 1510 1511 1511 1512 1512 1513 1513 1514 1514 1515 1515 1516 1516 1516 1516 1517 1517 1517 1517 1517 1517 1517 1517 1517 1517 1517 1517 1518 1518 1518 1519 1519 1520
1500 1504 1507 1500 1492 1497 1501 1503 1501 1500 1501 1502 1504 1505 1507 1508 1510 1511 1512 1512 1512 1513 1514 1514 1514 1515 1515 1516 1516 1517 1517 1517 1518 1518 1518 1518 1518 1518 1518 1518 1518 1518 1518 1519 1519 1519 1519 1520 1520
1495 1503 1504 1498 1491 1496 1503 1505 1501 1500 1500 1500 1502 1504 1506 1508 1510 1511 1512 1512 1512 1513 1513 1514 1515 1515 1516 1516 1517 1517 1518 1518 1519 1519 1519 1519 1519 1519 1519 1519 1519 1519 1519 1519 1519 1519 1519 1520 1521
1496 1500 1500 1500 1496 1497 1504 1511 1505 1500 1500 1500 1501 1502 1505 1506 1507 1509 1511 1511 1512 1513 1514 1514 1515 1516 1516 1517 1517 1518 1518 1519 1519 1519 1519 1520 1520 1519 1519 1519 1519 1519 1519 1519 1519 1519 1520 1520 1520
1499 1487 1489 1494 1505 1515 1509 1528 1510 1502 1501 1499 1500 1501 1503 1504 1506 1508 1509 1511 1512 1512 1513 1514 1515 1516 1516 1517 1517 1517 1518 1518 1519 1519 1520 1520 1520 1520 1520 1520 1519 1519 1519 1519 1519 1519 1519 1519 1519
1487 1481 1486 1491 1503 1514 1512 1523 1515 1503 1503 1500 1498 1499 1500 1502 1504 1506 1508 1510 1511 1512 1513 1514 1515 1515 1516 1517 1518 1518 1518 1519 1519 1520 1520 1520 1520 1520 1520 1520 1519 1519 1519 1518 1518 1518 1518 1518 1518
1478 1485 1491 1499 1510 1527 1517 1522 1520 1505 1498 1495 1494 1496 1497 1500 1503 1505 1507 1509 1511 1512 1513 1514 1515 1515 1516 1517 1518 1518 1518 1519 1519 1520 1519 1519 1520 1519 1519 1519 1519 1518 1518 1517 1517 1517 1517 1517 1517
1481 1502 1524 1527 1535 1532 1514 1517 1513 1493 1489 1489 1491 1493 1496 1499 1501 1504 1506 1508 1509 1511 1512 1513 1514 1515 1516 1517 1517 1518 1518 1519 1519 1519 1519 1519 1519 1518 1518 1518 1517 1517 1516 1516 1516 1516 1515 1515 1515
1484 1498 1524 1536 1538 1531 1516 1518 1502 1487 1485 1485 1488 1490 1494 1497 1500 1502 1504 1506 1508 1510 1511 1513 1514 1515 1516 1516 1517 1517 1518 1518 1518 1518 1518 1518 1518 1517 1517 1517 1516 1515 1514 1514 1514 1514 1514 1514 1513
1485 1492 1495 1515 1522 1531 1523 1511 1497 1486 1487 1486 1487 1489 1492 1495 1498 1501 1503 1505 1507 1509 1510 1511 1513 1514 1515 1516 1516 1517 1517 1517 1518 1518 1517 1517 1517 1517 1516 1516 1515 1514 1514 1513 1513 1512 1512 1512 1512
1473 1482 1499 1514 1530 1536 1525 1517 1510 1495 1490 1488 1488 1489 1491 1494 1497 1500 1502 1504 1506 1508 1509 1511 1512 1514 1515 1515 1516 1516 1517 1517 1517 1517 1516 1516 1516 1516 1515 1515 1514 1513 1512 1512 1512 1511 1510 1510 1510
1478 1483 1494 1509 1515 1529 1534 1519 1486 1485 1483 1486 1487 1487 1490 1493 1495 1498 1500 1503 1505 1507 1509 1510 1511 1513 1513 1514 1515 1515 1515 1516 1516 1516 1516 1515 1515 1515 1515 1514 1513 1512 1511 1511 1510 1510 1509 1508 1508
1472 1480 1491 1508 1511 1514 1521 1511 1474 1477 1478 1480 1483 1486 1489 1491 1493 1496 1499 1501 1504 1506 1507 1509 1510 1511 1512 1513 1514 1514 1514 1515 1515 1515 1515 1514 1514 1514 1514 1513 1512 1511 1510 1509 1509 1508 1508 1507 1507